New York JFK, NY

1:22 AM EST on December 15, 2017 (GMT -0500)
Kennedy International

Weather History for KJFK - December, 2017

Change the Weather History Date:

Thursday, December 7, 2017

  Actual Average Record
Temperature  
Mean Temperature 42 °F 40 °F  
Max Temperature 45 °F 47 °F 75 °F (1998)
Min Temperature 38 °F 34 °F 20 °F (1964)
Degree Days  
Heating Degree Days 23 25  
Month to date heating degree days 137 166  
Since 1 July heating degree days 822 990  
Cooling Degree Days 0 0  
Month to date cooling degree days 0 0  
Year to date cooling degree days 1174 1005  
Moisture  
Dew Point 23 °F    
Average Humidity 46    
Maximum Humidity 59    
Minimum Humidity 33    
Precipitation  
Precipitation 0.00 in 0.12 in 1.79 in (1996)
Month to date precipitation 0.32 0.83  
Year to date precipitation 41.78 40.21  
Snow  
Snow 0.00 in 0.10 in 1.60 in (1949)
Month to date snowfall 0.0 0.6  
Since 1 July snowfall T 0.8  
Snow Depth 0.00 in    
Sea Level Pressure  
Sea Level Pressure 30.01 in    
Wind  
Wind Speed 16 mph (West)    
Max Wind Speed 26 mph    
Max Gust Speed 33 mph    
Visibility 10 miles    
Events      
T = Trace of Precipitation, MM = Missing Value Source: NWS Daily Summary

Daily Weather History Graph

Daily Weather History Graph

Search for Another Location

Airport or City:

Trip Planner

Search our weather history database for the weather conditions in past years. The results will help you decide how hot, cold, wet, or windy it might be!

Date:

Astronomy

Dec. 07, 2017 Rise Set
Actual Time 7:05 AM EST 4:27 PM EST
Civil Twilight 6:34 AM EST 4:58 PM EST
Nautical Twilight 6:00 AM EST 5:32 PM EST
Astronomical Twilight 5:27 AM EST 6:05 PM EST
Moon 9:12 PM EST (12/7) 10:42 AM EST (12/7)
Length of Visible Light 10h 23m
Length of Day
9h 22m
Waning Gibbous, 78% of the Moon is Illuminated
Dec 7
Waning Gibbous
Dec 10
Last Quarter
Dec 18
New
Dec 26
First Quarter
Jan 1
Full

Hourly Weather History & Observations

Time (EST) Temp. Windchill Dew Point Humidity Pressure Visibility Wind Dir Wind Speed Gust Speed Precip Events Conditions
12:51 AM 42.1 °F 34.9 °F 25.0 °F 51% 30.01 in 10.0 mi WSW 13.8 mph - N/A   Mostly Cloudy
1:51 AM 41.0 °F 33.1 °F 25.0 °F 53% 30.01 in 10.0 mi West 15.0 mph - N/A   Mostly Cloudy
2:51 AM 39.9 °F 31.4 °F 24.1 °F 53% 30.01 in 10.0 mi West 16.1 mph - N/A   Mostly Cloudy
3:51 AM 39.9 °F 31.4 °F 23.0 °F 51% 30.00 in 10.0 mi West 16.1 mph - N/A   Mostly Cloudy
4:51 AM 39.0 °F 30.3 °F 23.0 °F 53% 30.00 in 10.0 mi West 16.1 mph - N/A   Scattered Clouds
5:51 AM 37.9 °F 29.6 °F 24.1 °F 57% 30.01 in 10.0 mi West 13.8 mph - N/A   Partly Cloudy
6:51 AM 37.9 °F 29.2 °F 24.1 °F 57% 30.03 in 10.0 mi West 15.0 mph - N/A   Partly Cloudy
7:51 AM 37.9 °F 29.6 °F 24.1 °F 57% 30.04 in 10.0 mi West 13.8 mph - N/A   Partly Cloudy
8:51 AM 41.0 °F 33.1 °F 24.1 °F 51% 30.04 in 10.0 mi WNW 15.0 mph - N/A   Partly Cloudy
9:51 AM 42.1 °F 33.1 °F 19.0 °F 40% 30.05 in 10.0 mi West 20.7 mph 28.8 mph N/A   Partly Cloudy
10:51 AM 44.1 °F 35.4 °F 17.1 °F 34% 30.04 in 10.0 mi West 21.9 mph 28.8 mph N/A   Partly Cloudy
11:51 AM 45.0 °F 36.9 °F 19.0 °F 36% 30.01 in 10.0 mi West 20.7 mph 26.5 mph N/A   Partly Cloudy
12:51 PM 45.0 °F 36.2 °F 21.0 °F 39% 29.99 in 10.0 mi West 24.2 mph 32.2 mph N/A   Partly Cloudy
1:51 PM 45.0 °F 37.4 °F 19.9 °F 37% 29.97 in 10.0 mi West 18.4 mph - N/A   Partly Cloudy
2:51 PM 44.1 °F 35.7 °F 18.0 °F 35% 29.98 in 10.0 mi West 20.7 mph 29.9 mph N/A   Partly Cloudy
3:51 PM 43.0 °F 35.4 °F 19.9 °F 40% 29.99 in 10.0 mi WSW 16.1 mph - N/A   Scattered Clouds
4:51 PM 42.1 °F 34.5 °F 21.9 °F 45% 29.99 in 10.0 mi WSW 15.0 mph - N/A   Scattered Clouds
5:51 PM 42.1 °F 34.9 °F 23.0 °F 47% 30.00 in 10.0 mi WSW 13.8 mph - N/A   Partly Cloudy
6:51 PM 42.1 °F 34.9 °F 23.0 °F 47% 30.01 in 10.0 mi West 13.8 mph - N/A   Partly Cloudy
7:51 PM 41.0 °F 33.5 °F 26.1 °F 55% 30.02 in 10.0 mi SW 13.8 mph - N/A   Scattered Clouds
8:51 PM 42.1 °F 34.2 °F 25.0 °F 51% 30.02 in 10.0 mi WSW 16.1 mph 31.1 mph N/A   Mostly Cloudy
9:51 PM 42.1 °F 35.2 °F 27.0 °F 55% 30.03 in 10.0 mi West 12.7 mph - N/A   Mostly Cloudy
10:51 PM 41.0 °F 33.5 °F 23.0 °F 49% 30.05 in 10.0 mi West 13.8 mph - N/A   Mostly Cloudy
11:51 PM 39.9 °F 31.4 °F 27.0 °F 60% 30.06 in 10.0 mi West 16.1 mph - N/A   Overcast